星链-4791 (STARLINK-4791 )

导读

STARLINK-4791是美国太空探索技术公司(SpaceX)研发运营的星链(Starlink)低轨互联网卫星,于2022年9月24日发射入轨,属于Starlink v2.0 mini卫星平台。它是星链全球卫星互联网星座计划的一员,运行于近地轨道,旨在为全球偏远地区等提供低延迟、高速宽带互联网接入服务,目前该卫星仍在正常工作,推动星链全球覆盖进程。

Basic Information
目录编号:
53936
目录名称:
STARLINK-4791
国际标识:
2022-119BC
轨道中心:
EARTH
卫星名称:
星链-4791
卫星全名:
星链-4791 (STARLINK-4791 )
卫星状态:
在轨 (已飞行1362 天)
发射日期:
2022-09-24 UTC
国别 :
美国 (US)
星等 :
--
Orbit Information
数据来源 国际轨道数据 AOE轨道数据
星历时间 2026-06-16T18:01:45+0800
23小时前
查看轨道信息
2026-06-15T04:00:00+0800
2天前
查看轨道信息
半长轴 6917.909km 6917.879km
偏心率 0.0001185 0.0001227
轨道倾角 53.159° 53.156°
近地点辐角 84.179° 76.555°
升交点赤经 215.556° 222.680°
平近点角 275.933° 311.906°
近地点 538.952km 538.893km
远地点 540.592km 540.591km
周期 95.438分钟 95.438分钟
每日圈数 15.088308 15.088407
Detailed Information
固有亮度:
5
最大亮度:
2.5
卫星平台:
Starlink v1.5
覆盖范围:
全球
运营商:
太空探索技术公司
运营商所在国:
美国
制造商(研发单位):
太空探索技术公司
制造商所在国:
美国
使用方式:
暂无
Satellite Introduction
星链(Starlink)计划是由太空探索技术公司(SpaceX)提出的一个巨型低轨卫星互联网星座项目,计划在2019年至2024年间在太空搭建由约1.2万颗卫星组成的“星链”网络,其中1584颗将部署在地球上空550千米处的近地轨道,并从2020年开始工作。该卫星仍在工作。
2D Orbit Map
3D Orbit Map
Orbit Altitude Analysis Chart
Orbit Inclination Analysis Chart
Orbit Comprehensive Analysis Chart
View Comprehensive Chart